Theta_e
284 284 285 285 284 284 285 285 285 286 286 286 285 284 284 283 283 283 282 280 280 278 277 278 278 278 278 279 278 278 278 277 277 277 276 275 276 276 276 276 275 274 274 273 273 272 272 272 271 271 272 271 271 272 272 271 271 271 270 270 270 270 270 269 267 267 269 271 271 271 272 272 271 272 271 271 271 270 272 271 271 270 271 271 271
284 284 284 285 284 284 285 285 285 285 285 285 285 285 284 283 283 282 280 280 279 278 277 277 278 278 278 278 278 278 278 277 277 277 276 276 276 277 276 276 275 274 274 272 272 272 272 271 271 271 271 271 271 271 271 271 270 270 270 270 269 269 270 268 267 267 266 270 270 272 272 272 270 272 271 270 269 270 270 270 271 271 271 271 272
283 284 284 284 284 284 285 285 285 285 285 285 285 285 285 284 283 282 281 281 279 278 278 277 277 278 278 278 278 278 278 277 277 277 277 277 276 276 276 276 275 274 273 272 272 272 272 271 271 271 271 270 271 271 271 271 271 270 270 270 269 269 269 269 268 267 267 268 270 270 270 271 270 271 271 270 270 270 269 269 270 271 272 272 272
283 283 283 283 283 284 284 284 284 284 284 285 285 285 285 285 284 282 282 281 280 279 279 278 277 277 277 278 278 278 277 278 277 277 277 277 277 277 276 275 275 274 273 272 272 272 271 271 271 271 271 270 271 271 271 271 271 270 270 269 269 268 269 269 269 268 268 268 269 269 269 269 270 271 271 271 270 270 269 269 270 270 271 272 272
283 283 283 282 283 283 283 283 283 283 284 284 284 285 285 285 284 283 282 282 281 280 279 279 278 277 277 277 277 277 277 277 277 277 278 277 277 277 277 275 274 274 273 273 273 272 271 271 271 271 271 270 271 270 271 270 270 270 269 269 269 269 270 270 270 270 269 268 268 269 270 270 270 270 271 269 269 269 269 269 270 270 271 272 272
283 283 283 282 282 282 282 283 283 283 283 284 284 285 285 285 285 284 283 282 281 280 280 279 278 277 277 277 278 277 277 277 277 277 277 277 277 277 276 275 274 274 273 273 273 273 272 272 272 271 270 270 270 271 271 270 270 270 270 269 269 270 269 270 270 269 268 268 268 268 269 269 269 270 270 270 268 267 268 269 270 271 271 270 270
283 283 283 282 282 282 282 283 283 283 283 284 284 285 285 285 285 284 284 282 281 280 280 279 279 278 278 278 278 278 278 278 277 277 278 277 277 276 275 274 274 274 273 273 273 273 272 272 272 271 270 270 270 270 270 269 269 269 270 269 269 268 269 269 269 268 268 268 268 269 268 270 269 268 270 270 269 269 268 268 268 271 271 270 269
282 282 283 282 282 282 283 283 283 284 284 284 284 284 285 285 284 285 284 282 281 280 280 279 279 279 278 278 278 278 278 278 278 277 277 277 276 275 275 274 273 273 273 273 273 272 272 272 272 271 271 271 270 270 269 268 269 268 269 268 268 267 267 268 268 268 268 268 268 268 269 268 269 270 270 270 268 268 269 269 267 267 268 269 269
282 282 282 282 282 283 283 283 284 284 284 284 284 284 285 285 284 284 283 282 282 281 281 280 279 278 278 278 278 278 278 278 278 277 277 276 276 275 275 274 274 273 273 273 272 272 272 272 271 271 272 273 274 273 272 272 269 268 268 268 267 266 266 267 268 268 268 268 268 268 268 268 268 268 268 268 267 267 269 269 267 268 268 267 268
282 282 282 283 283 283 283 284 284 284 284 284 284 284 284 283 284 284 283 282 282 281 281 280 279 278 278 278 278 278 278 278 279 280 279 276 275 275 274 274 274 273 273 272 272 272 272 272 272 274 274 275 275 275 275 275 274 271 268 267 267 267 267 267 268 268 268 267 268 268 267 267 268 269 268 269 268 268 268 268 266 266 266 266 267
282 282 283 283 283 283 283 283 284 283 283 283 284 284 284 284 284 285 284 282 282 281 280 279 279 278 278 277 277 277 277 278 280 281 281 281 276 275 274 274 274 273 273 272 271 271 271 272 271 273 274 275 275 276 276 276 276 275 274 273 272 269 268 268 268 269 268 268 268 269 268 268 269 269 268 268 268 268 267 267 266 266 265 264 263
283 283 283 283 283 283 283 283 283 283 283 283 284 284 284 284 284 285 283 282 282 281 279 279 279 278 278 278 277 277 277 279 281 281 282 282 279 275 274 274 273 273 273 272 272 272 271 271 271 271 273 273 273 273 275 276 276 276 276 276 276 276 275 272 270 269 269 268 268 269 268 268 268 268 268 268 267 267 267 267 266 266 265 265 266
283 283 283 283 283 283 283 283 283 283 283 283 284 283 283 284 285 284 283 282 281 280 280 279 278 278 278 277 277 277 277 279 281 281 282 282 282 277 274 274 273 273 273 272 272 272 271 271 270 270 271 275 274 271 269 271 276 277 277 277 277 277 277 278 277 274 273 270 269 269 269 268 267 267 268 268 269 267 267 266 267 267 267 266 266
283 283 283 283 283 283 283 282 282 283 283 283 284 283 283 283 284 285 284 282 281 280 279 279 279 278 278 277 277 277 277 279 281 281 281 282 282 280 274 274 274 273 273 273 272 272 272 271 270 269 269 271 272 269 268 268 268 268 268 268 267 270 273 274 275 275 274 271 268 267 267 267 267 268 269 271 269 267 267 266 267 266 266 265 266
283 283 283 283 283 283 282 282 282 283 283 283 283 283 283 283 284 285 284 282 281 280 279 278 278 278 278 278 277 277 277 279 280 281 281 282 282 281 274 274 273 273 273 273 273 273 272 272 271 270 269 269 270 269 268 268 267 267 266 265 266 267 267 268 268 268 268 267 266 266 267 269 269 270 270 270 270 269 269 267 266 265 265 265 265
282 283 283 282 282 282 282 282 282 282 283 283 283 283 283 283 283 284 283 282 281 280 279 279 278 278 278 277 277 276 276 280 280 281 281 281 282 280 276 274 273 273 273 273 273 273 272 272 271 270 269 269 271 275 272 268 267 266 266 265 266 267 267 270 272 273 271 268 267 268 269 270 273 272 272 272 270 268 267 266 265 263 262 261 260
281 282 282 282 282 282 282 282 281 282 282 282 282 282 283 283 283 283 282 282 281 279 279 278 278 278 277 277 276 276 276 279 280 281 281 281 281 279 276 273 273 272 272 273 273 273 272 272 271 270 269 268 272 275 276 273 267 267 267 267 266 266 265 265 272 274 275 275 274 274 273 273 272 272 273 273 270 268 264 262 261 262 260 258 259
280 282 282 282 282 282 282 282 282 282 282 281 282 282 283 283 282 283 281 281 280 279 279 278 277 277 277 276 276 275 275 277 280 280 281 281 280 278 277 273 272 272 272 272 272 272 273 274 273 270 269 269 273 275 276 275 270 269 268 267 266 266 266 265 261 262 269 268 268 268 268 268 268 268 267 267 268 267 262 260 261 259 258 258 257
281 281 282 282 282 282 283 283 282 282 281 282 282 281 282 282 282 283 282 281 280 280 278 277 276 276 277 276 278 276 275 276 279 280 281 281 280 279 277 274 272 272 272 271 272 272 272 274 275 272 271 271 275 276 277 275 271 270 269 268 267 265 265 262 261 261 260 258 257 255 256 258 255 252 255 263 264 264 260 258 257 256 256 257 257
281 282 281 282 282 283 283 282 282 281 281 281 282 282 282 282 282 283 282 280 279 278 278 277 276 275 276 276 276 277 275 275 277 280 280 281 281 279 277 275 272 272 272 271 270 271 271 272 274 275 274 274 275 277 277 277 272 270 269 267 264 263 263 262 262 260 257 255 253 251 251 250 250 250 249 250 253 255 257 257 257 256 257 257 258
282 282 282 282 282 282 282 281 280 280 280 280 281 282 282 282 282 282 281 280 278 277 276 276 275 275 275 275 275 276 276 275 275 279 280 280 281 280 276 275 274 273 272 271 271 270 270 271 272 275 276 276 276 277 277 277 275 270 267 265 265 266 263 258 259 261 254 252 250 248 249 249 249 248 249 250 252 253 254 256 256 256 257 257 257
282 282 281 281 282 282 281 281 280 280 280 280 280 281 282 281 281 280 280 279 277 276 275 275 274 274 274 275 274 275 275 276 274 277 279 280 281 281 277 276 275 273 272 271 271 270 270 270 270 274 277 277 277 277 277 276 275 268 268 271 271 268 260 257 254 251 249 248 247 249 248 249 250 249 251 251 252 253 253 253 255 256 257 259 258
280 280 280 281 281 281 280 280 280 280 280 280 280 281 281 280 280 280 279 278 276 275 274 274 273 273 273 273 274 274 274 275 276 275 278 279 280 281 279 277 278 275 272 270 270 270 270 270 270 275 277 278 277 277 276 275 272 269 273 272 269 267 260 253 252 248 248 248 248 249 249 248 249 250 250 250 251 251 252 253 254 255 257 258 260
279 279 280 281 282 281 280 280 279 279 279 280 280 280 281 281 281 280 278 277 276 275 274 273 272 272 271 271 272 273 273 273 276 277 276 278 280 280 281 279 279 274 273 271 271 270 268 268 269 275 277 277 277 275 274 272 269 272 271 269 266 262 252 251 248 248 249 249 248 249 249 249 248 250 251 251 252 252 252 253 253 255 256 258 260
278 279 280 281 282 281 280 279 278 278 279 279 280 281 281 281 280 280 277 276 275 274 274 273 272 271 271 271 271 272 272 273 273 275 277 277 278 280 280 280 279 277 273 272 271 270 271 272 274 276 276 276 276 274 272 272 272 270 268 266 261 251 249 247 247 247 248 248 248 248 248 250 250 251 252 252 252 252 251 252 254 256 258 259 260
277 278 280 281 281 281 279 279 279 279 279 280 279 280 281 281 280 279 277 275 274 273 273 272 272 271 271 271 271 271 272 272 272 273 276 277 277 278 279 280 279 278 276 272 273 274 275 274 275 276 275 272 266 263 263 266 269 267 265 260 249 250 248 249 249 247 247 247 248 249 250 250 250 251 252 251 249 250 250 252 253 254 256 257 258
277 278 279 281 281 281 279 279 280 279 279 281 282 282 282 280 279 277 275 274 273 272 272 272 271 271 271 271 271 271 271 271 271 271 272 274 275 276 277 278 279 278 275 273 274 273 274 274 272 271 269 270 268 268 267 264 258 254 250 249 249 250 252 253 250 247 248 248 248 248 249 250 251 251 250 250 250 250 250 253 252 253 255 256 256
274 277 279 280 281 281 280 280 280 280 281 281 281 281 281 280 277 276 275 275 273 272 272 271 271 271 271 271 270 270 269 270 270 271 271 272 274 274 274 274 275 275 272 272 272 272 272 272 269 264 262 259 257 254 252 250 251 250 248 247 248 252 258 260 256 247 246 246 246 247 249 249 249 250 250 250 250 250 251 252 252 253 254 255 255
272 275 278 280 280 281 281 280 280 281 281 281 282 282 280 279 278 277 277 276 274 273 272 272 272 272 272 271 270 269 269 269 270 273 272 274 273 273 272 273 272 272 273 273 267 265 264 262 261 260 259 256 254 252 250 249 248 249 249 247 245 245 246 245 246 247 247 248 248 249 249 248 249 249 250 250 250 251 251 251 252 251 253 254 254
270 274 278 279 280 280 280 279 279 280 280 280 281 280 281 281 279 277 276 278 278 278 277 273 273 273 272 272 272 270 269 271 274 276 275 276 276 276 275 275 274 273 274 273 268 265 263 262 260 258 256 255 253 252 251 249 250 250 251 256 250 248 248 247 247 248 249 249 248 248 248 248 248 249 249 249 250 250 252 254 250 251 251 252 253
270 273 278 279 279 280 279 279 279 280 280 280 280 279 278 277 279 279 278 278 278 279 279 279 279 277 274 272 273 276 275 275 275 276 276 277 277 277 277 276 276 276 275 269 266 264 262 260 259 258 256 255 254 253 251 250 250 250 248 248 248 251 250 248 248 249 249 248 249 248 248 247 248 248 248 249 249 250 249 249 249 250 250 252 252
269 272 276 278 278 278 278 278 279 279 280 280 279 278 277 276 276 277 278 277 277 278 278 278 279 279 278 276 273 273 276 276 276 277 277 277 277 277 277 277 277 277 274 272 264 263 262 261 259 257 255 254 253 252 251 251 250 250 249 248 249 249 249 249 250 247 249 248 248 248 248 247 247 248 248 248 250 248 249 249 249 250 251 251 252
269 272 275 277 277 278 278 279 279 280 279 279 279 278 277 275 273 273 274 276 276 276 276 277 277 277 278 278 277 275 275 276 277 277 277 277 277 277 277 277 277 276 274 267 264 262 261 261 259 256 255 255 253 252 251 251 251 249 249 250 250 249 248 251 252 248 250 251 249 247 247 247 247 248 248 248 248 248 249 249 248 249 249 250 252
269 271 272 273 276 277 278 279 279 279 280 279 279 278 276 274 273 272 270 270 270 272 274 274 274 275 275 277 278 277 277 277 277 277 278 278 278 278 277 276 277 276 271 265 264 262 261 260 258 256 255 254 253 252 251 250 250 249 248 248 249 248 249 247 248 248 247 248 247 248 248 246 247 246 246 246 246 246 248 248 248 248 249 249 250
268 270 272 272 272 275 277 278 279 279 280 279 279 277 275 273 271 270 269 268 267 267 268 269 270 273 272 273 277 278 278 278 277 277 278 278 278 278 278 274 273 271 268 265 264 262 261 259 258 256 255 254 253 253 252 251 250 250 251 250 248 247 248 248 248 246 246 246 247 247 248 247 245 247 246 246 247 248 247 248 247 248 248 249 250
266 267 268 269 270 271 273 277 279 279 280 279 279 277 274 272 271 270 269 268 267 267 267 267 267 269 273 273 275 278 278 278 278 278 278 278 278 278 273 272 270 268 265 263 262 261 261 260 258 256 255 254 253 253 253 252 251 251 250 251 250 249 248 248 248 246 246 245 247 250 247 244 246 246 244 245 245 246 245 246 246 248 249 249 250
265 266 267 268 268 269 271 275 279 279 279 278 278 276 273 271 270 269 269 267 267 266 267 266 267 267 270 271 274 278 278 278 278 278 278 278 278 276 273 272 269 266 264 262 260 259 258 258 257 256 255 254 254 253 252 251 250 251 254 251 249 250 249 248 247 247 245 246 244 244 244 243 243 244 245 245 246 245 246 246 246 249 250 250 251
265 265 266 267 268 269 270 273 276 278 278 278 278 277 273 271 270 269 268 267 268 267 266 266 268 266 267 268 273 276 276 278 278 277 277 277 276 273 271 268 266 265 263 262 260 260 259 257 257 256 255 254 254 253 252 251 250 251 252 249 250 252 258 254 253 247 245 243 244 243 245 244 243 243 246 245 245 245 246 247 246 246 247 249 248
264 267 268 268 269 268 269 271 273 275 277 277 277 276 273 271 269 268 267 266 266 266 266 266 265 266 266 268 270 276 276 273 272 272 273 273 272 271 267 266 265 264 262 261 260 259 257 256 255 255 255 254 254 253 252 251 251 250 250 251 252 252 252 245 245 243 244 243 243 241 242 242 242 242 244 244 245 244 244 245 245 245 245 246 247
264 264 265 267 267 267 269 270 271 274 276 276 277 276 273 271 269 268 267 267 266 266 266 266 266 266 267 268 270 273 271 271 271 271 270 270 269 268 267 265 264 263 261 260 259 258 256 255 255 255 254 254 253 253 252 251 250 250 250 252 252 251 247 245 244 245 244 242 243 242 243 243 244 243 242 244 245 243 245 245 245 246 245 244 246
263 264 265 266 267 266 267 269 270 272 274 275 276 276 274 271 270 268 268 267 266 266 266 266 266 266 268 270 274 274 271 270 270 269 269 269 268 267 266 265 264 262 261 260 258 257 256 255 255 254 254 254 253 253 252 251 250 250 250 250 248 248 243 242 243 243 243 243 242 243 243 244 245 244 245 245 251 246 243 245 244 244 245 245 246
263 263 263 264 265 265 266 267 269 271 272 274 275 276 273 270 269 269 268 267 267 266 266 266 266 266 269 273 274 275 270 269 268 268 268 268 267 267 266 265 264 263 261 260 258 257 256 256 255 255 254 253 253 252 252 251 251 251 250 249 249 247 246 244 244 243 243 243 241 242 244 247 248 248 248 251 240 241 244 245 245 245 245 245 246
264 263 263 264 264 264 265 266 268 269 271 273 274 275 271 270 269 268 268 267 267 266 266 266 266 266 267 270 272 274 269 268 268 267 267 267 266 265 265 264 263 262 261 260 259 258 257 256 255 255 254 254 254 254 254 253 252 251 250 249 249 248 247 245 244 243 242 243 243 245 243 244 244 241 242 243 241 242 242 243 245 245 245 245 245
264 263 263 264 264 265 266 266 267 269 271 273 273 273 271 269 268 268 267 267 266 266 266 266 266 266 266 267 269 270 268 267 266 266 265 266 265 264 263 262 261 260 260 259 258 257 257 256 255 254 254 254 254 252 253 253 252 252 251 250 249 248 247 247 247 245 245 245 245 244 242 244 244 243 245 245 241 244 245 244 246 246 246 245 245
263 263 263 263 263 264 265 267 268 269 270 272 274 274 270 269 268 268 267 267 266 266 266 266 266 266 266 267 268 268 267 266 266 265 265 265 264 262 262 261 260 260 259 258 257 257 256 256 255 254 254 253 253 252 252 251 250 251 252 251 251 250 249 249 249 247 246 246 247 245 244 243 241 242 243 244 244 243 245 243 244 248 246 246 245
263 263 263 263 264 265 266 266 268 269 271 273 274 275 271 269 269 268 267 267 267 266 266 266 266 266 266 267 268 268 266 266 265 265 264 264 263 261 261 260 260 259 258 257 257 257 256 256 255 255 254 253 252 250 251 249 249 249 248 248 250 250 250 249 246 246 246 246 246 245 245 243 242 245 247 244 244 244 243 243 244 244 243 244 245
262 262 263 263 264 265 266 267 269 270 271 272 274 275 271 269 268 268 267 267 267 267 266 266 266 266 266 267 267 267 266 265 265 264 263 262 261 260 259 259 259 258 256 256 256 256 255 255 255 254 254 252 251 250 250 249 248 248 247 246 247 248 247 246 247 247 246 245 246 246 245 246 245 245 246 246 245 245 245 245 245 244 244 245 244
263 263 263 264 265 265 266 267 268 270 271 272 274 273 270 269 268 267 267 267 267 267 266 266 266 266 266 267 267 267 266 265 264 263 262 261 260 260 259 259 258 257 256 255 256 256 255 255 254 253 252 252 251 250 249 248 247 247 246 246 247 247 248 249 245 243 244 244 244 244 245 245 243 243 245 243 244 245 246 245 245 245 245 245 245
263 263 263 264 265 266 267 267 269 270 271 272 274 271 269 268 268 267 267 267 267 267 267 266 266 266 266 267 267 266 265 264 263 262 261 260 260 259 259 258 258 257 256 255 255 255 254 253 253 252 252 252 251 250 250 249 248 248 246 246 249 251 251 250 247 244 247 245 244 243 242 243 243 244 245 244 244 244 244 243 243 245 244 244 244
263 264 264 265 266 266 268 269 269 270 272 275 273 270 269 268 268 267 267 267 267 267 266 266 266 266 266 266 266 265 264 263 262 261 260 259 259 259 258 258 257 257 256 255 254 254 253 252 251 251 251 251 251 251 250 250 249 249 248 249 252 252 251 251 250 250 247 243 245 244 244 243 241 241 241 241 242 243 245 245 245 246 244 243 244
264 264 265 265 266 268 269 268 269 271 273 273 272 271 270 269 268 267 267 267 266 266 266 266 266 266 266 266 265 265 263 262 261 260 259 258 258 257 257 257 256 256 255 255 254 253 252 251 251 251 251 251 251 251 250 250 248 249 251 253 253 253 252 252 249 250 249 246 243 244 245 246 244 244 245 243 241 243 247 247 246 244 244 244 244
Wind_Speed
13 13 12 12 12 12 12 10 10 9 10 9 9 9 9 9 10 10 8 8 8 7 8 9 9 9 9 10 10 9 10 11 11 11 7 7 7 9 10 12 13 13 11 9 8 8 10 12 11 10 9 10 9 8 8 9 9 8 7 8 8 7 8 8 8 11 7 6 9 11 9 9 8 7 9 8 9 8 11 11 12 11 12 12 12
12 13 12 12 13 13 13 12 11 10 10 10 10 9 8 8 9 8 8 10 8 9 9 8 8 9 9 10 10 10 12 12 11 12 12 12 11 10 10 12 12 12 11 9 9 10 9 12 10 10 10 10 9 10 9 9 9 9 8 9 9 8 7 7 8 9 10 3 10 10 10 5 9 6 9 8 10 9 11 12 11 11 12 11 11
13 12 12 13 13 13 13 12 11 11 11 11 10 10 9 9 8 9 9 9 7 8 9 9 9 9 9 10 10 10 11 11 11 12 13 13 13 11 10 13 13 13 14 13 14 11 11 10 11 9 8 10 11 10 10 10 10 10 10 8 9 8 8 8 7 10 10 9 9 12 9 9 9 9 6 7 10 10 13 12 12 11 11 12 11
13 13 13 14 14 14 14 12 13 12 12 10 11 12 11 9 8 8 9 8 9 8 9 9 8 9 10 10 11 10 11 12 11 12 13 14 13 14 13 12 12 13 14 14 13 12 12 11 11 11 10 11 11 10 10 10 10 10 10 9 9 9 8 7 8 9 8 11 8 9 7 9 8 8 8 9 10 11 10 12 11 13 12 11 10
12 12 12 14 14 14 14 13 13 13 12 11 13 12 11 10 9 9 9 9 9 8 8 8 8 9 10 10 11 11 11 12 12 12 12 12 12 13 12 12 12 13 14 14 13 13 12 13 12 10 11 11 11 8 10 12 11 10 10 9 9 8 7 8 8 8 9 11 10 7 7 10 10 9 6 7 8 11 11 12 12 12 12 10 9
12 12 12 13 13 14 13 12 12 12 12 12 13 12 12 11 10 9 8 9 9 8 9 8 9 10 10 10 11 12 12 12 12 12 12 12 11 11 10 11 12 13 13 13 13 13 13 13 11 11 12 12 12 11 11 12 11 10 10 9 8 8 8 8 8 8 9 11 10 11 8 8 6 7 5 6 8 10 12 12 13 12 10 10 9
12 12 12 12 13 14 14 14 13 12 12 12 12 12 12 12 11 11 9 8 9 8 8 10 10 10 11 10 11 11 11 11 11 11 11 11 11 11 11 11 12 12 12 13 12 12 13 12 11 11 13 13 12 12 11 10 10 11 11 10 9 8 8 8 7 8 9 11 10 8 8 9 7 9 8 8 9 10 14 14 13 11 12 13 16
12 12 12 12 13 14 13 12 11 12 11 12 12 12 12 11 11 10 8 8 9 9 10 10 10 9 10 10 10 10 10 10 11 11 10 11 10 11 11 12 12 12 12 12 11 11 12 12 12 12 13 13 12 10 11 11 9 10 9 8 8 8 8 7 7 8 8 9 8 10 8 9 7 9 6 6 9 9 8 12 15 16 13 13 12
12 12 12 13 13 12 11 10 9 10 11 11 12 13 12 12 10 8 7 8 8 9 9 9 9 10 9 10 9 9 10 10 9 10 11 11 10 11 12 12 11 13 12 12 11 11 11 11 11 11 12 14 17 14 13 12 10 10 9 8 8 8 7 7 8 9 8 8 9 9 9 9 8 7 8 11 12 13 12 8 10 9 12 14 13
12 12 12 13 13 12 11 10 10 10 10 11 12 12 12 11 9 8 8 8 8 9 9 9 9 10 10 10 9 9 9 9 11 19 16 11 11 10 9 9 11 12 12 12 11 10 12 10 10 17 18 19 19 19 18 19 17 12 9 9 9 8 8 8 9 8 8 8 9 8 9 9 8 8 13 10 8 10 9 9 12 14 14 16 15
13 12 14 13 13 11 10 10 10 10 11 11 11 11 11 10 10 9 7 7 8 8 8 10 10 10 10 10 10 10 9 9 19 22 23 22 13 10 8 8 10 11 11 12 12 9 8 10 9 13 15 17 16 20 19 20 20 19 18 16 14 11 9 10 10 10 8 8 8 9 9 9 9 7 7 9 8 8 10 10 10 14 13 14 16
12 13 13 12 12 12 11 11 11 11 10 11 11 11 11 9 10 9 8 7 8 7 8 10 10 10 9 10 10 10 10 13 20 22 23 23 19 11 9 8 11 10 10 11 11 10 8 8 9 9 10 11 10 11 16 19 19 19 20 20 20 21 20 13 10 7 8 8 8 9 8 8 9 7 8 6 9 8 8 12 14 15 13 14 14
12 13 12 12 12 11 10 10 11 11 9 10 11 11 9 9 9 8 9 7 6 7 10 10 10 10 10 11 11 10 9 15 19 21 21 22 22 16 9 9 10 8 11 11 11 11 8 8 7 8 8 18 13 9 8 10 16 19 20 20 20 21 21 19 16 10 6 7 7 9 8 8 9 8 7 10 8 11 11 10 10 10 11 14 13
13 13 13 12 11 10 10 10 10 10 10 10 11 11 9 9 9 8 8 6 7 8 9 10 10 10 10 10 9 9 9 14 20 21 21 23 23 19 10 12 10 12 11 11 11 11 8 8 8 8 8 10 8 9 8 8 7 6 6 5 4 5 9 11 13 14 12 8 7 9 7 4 10 11 11 10 11 9 7 9 9 11 11 12 14
14 13 13 12 11 11 10 10 11 10 10 11 10 10 10 9 9 8 7 7 7 8 8 9 9 9 9 9 8 9 9 16 19 21 21 23 23 20 10 10 9 10 9 9 11 11 9 8 8 8 8 9 8 10 9 9 7 7 6 6 4 6 6 6 7 7 7 7 8 9 10 9 10 11 10 10 10 8 5 8 10 12 13 15 15
16 14 13 12 11 10 9 11 12 11 10 11 11 11 10 10 10 8 7 7 6 6 7 7 8 8 8 8 8 9 8 18 20 21 22 22 23 13 8 11 10 9 9 9 8 10 9 8 6 9 10 10 13 18 14 8 8 8 7 6 6 6 6 7 11 12 10 8 9 10 10 9 11 9 9 11 10 10 11 11 10 10 12 13 15
17 15 12 11 10 10 9 10 11 11 11 11 12 11 12 11 9 7 7 6 6 6 7 7 7 7 7 8 9 8 8 15 20 21 21 22 16 9 7 9 9 11 9 10 10 9 10 9 9 8 9 9 13 18 18 14 8 8 8 7 6 6 7 5 10 15 16 14 12 13 14 16 18 20 20 21 16 14 10 10 11 8 9 13 14
17 14 12 11 11 10 9 9 10 11 11 12 12 11 11 9 9 7 7 6 6 7 6 6 6 7 8 8 9 9 8 13 19 19 20 20 16 10 7 8 8 10 9 9 9 9 11 18 12 10 9 9 15 18 17 14 9 9 8 8 8 8 6 3 2 2 6 8 9 11 12 13 15 16 16 18 18 13 7 12 9 5 10 9 15
17 15 13 10 10 10 9 8 9 10 11 12 11 11 11 10 9 8 7 6 6 5 5 6 6 6 8 8 12 11 7 10 18 19 20 19 16 9 8 7 9 9 8 8 7 7 9 13 18 12 10 10 17 17 17 13 7 8 7 7 7 7 6 3 2 1 4 6 6 8 10 10 8 8 9 15 16 13 7 7 7 7 10 10 11
19 16 11 9 10 10 8 8 8 9 10 11 11 10 10 10 9 8 6 5 5 5 5 5 6 6 6 7 8 9 8 7 11 19 18 18 21 10 7 7 8 9 8 7 7 7 7 7 13 18 17 16 16 17 16 16 8 6 6 6 6 7 2 5 3 3 1 1 5 4 7 7 7 6 5 6 7 8 8 7 6 7 9 10 9
20 12 9 11 11 10 8 7 9 9 9 10 9 9 9 10 10 8 7 6 4 4 5 5 5 5 6 6 7 7 7 8 9 17 16 19 20 18 8 8 9 9 8 9 8 9 8 8 6 15 18 17 17 17 15 14 11 7 7 6 5 4 8 5 2 3 1 2 3 4 5 5 6 5 5 6 6 7 7 8 7 7 9 10 10
16 16 15 13 11 9 9 9 8 8 8 8 9 10 9 9 9 8 6 5 5 5 4 4 5 5 4 6 6 7 7 11 7 13 16 18 19 21 9 9 10 9 9 8 8 7 8 8 7 12 18 18 18 16 14 11 9 7 6 6 8 14 7 5 4 2 0 2 4 5 5 6 6 6 6 6 7 8 7 8 8 9 9 11 11
16 15 14 14 11 9 9 10 9 7 8 9 9 11 10 9 9 7 6 5 5 5 4 4 5 5 4 5 5 6 6 7 12 9 15 17 18 18 16 12 18 12 10 9 9 8 7 8 7 15 17 16 15 13 10 9 8 6 9 11 14 12 9 4 3 2 2 2 3 5 5 5 6 7 6 7 7 7 8 8 10 10 11 12 13
14 14 14 14 11 9 9 9 8 7 8 8 9 10 11 10 9 7 5 5 5 5 4 4 5 5 6 4 5 5 5 5 9 13 10 16 15 17 17 20 20 11 10 9 9 8 8 8 8 16 16 15 13 11 10 11 7 11 12 12 11 9 5 4 2 1 0 1 3 5 6 5 5 6 7 7 8 8 9 9 10 10 11 10 12
16 15 15 13 12 10 8 7 7 8 8 6 8 10 12 10 8 6 4 4 5 5 4 4 6 5 5 6 5 5 4 5 5 9 13 13 14 15 16 20 21 19 11 8 9 9 11 16 17 17 15 14 14 12 11 12 13 12 11 10 8 6 4 3 2 0 1 3 4 5 5 5 5 7 8 7 8 8 7 7 8 9 10 10 11
17 16 15 13 10 9 8 8 7 8 8 6 6 8 9 8 7 7 6 5 5 5 4 3 4 5 5 5 6 6 5 5 5 5 7 9 10 12 14 15 21 20 15 11 15 17 17 18 19 17 15 12 10 9 6 7 11 11 10 9 5 5 4 3 1 0 1 1 3 5 6 6 6 6 7 6 6 8 6 7 7 7 6 7 8
17 15 14 11 9 8 8 7 7 7 6 7 7 7 7 6 6 6 6 5 4 4 4 4 4 4 5 5 5 5 5 5 4 5 4 4 4 5 7 7 16 20 11 9 13 11 14 13 10 14 14 16 13 12 10 10 9 8 6 4 4 4 2 2 2 1 1 1 2 4 5 6 6 6 7 7 7 7 5 7 7 7 8 7 7
16 15 14 10 8 8 8 9 9 7 7 6 7 7 7 5 4 5 6 5 4 4 4 5 5 5 5 4 5 5 6 5 5 6 6 6 5 5 4 2 3 9 9 8 9 10 10 13 15 10 10 9 8 7 6 5 6 6 5 3 3 0 1 4 5 2 0 1 2 2 4 5 7 7 7 6 7 7 6 7 7 8 8 8 7
18 16 12 9 8 8 7 7 7 7 7 7 6 6 7 7 5 5 5 4 4 4 4 4 5 5 5 5 6 5 7 6 9 8 7 10 8 7 6 5 4 8 13 16 11 11 11 11 11 9 8 8 7 6 5 6 4 4 4 4 3 2 2 2 3 2 1 1 3 4 5 6 6 6 6 7 7 8 7 6 6 7 7 5 6
16 15 11 8 8 8 7 8 7 7 7 7 7 5 5 6 4 5 6 6 8 10 7 6 5 5 5 4 6 7 9 9 9 14 14 15 15 14 11 11 14 13 20 26 17 11 10 9 8 10 8 7 7 7 6 5 6 5 3 5 2 1 1 1 1 0 0 2 2 3 4 4 6 6 7 7 7 6 7 8 7 7 7 7 7
14 12 10 8 9 9 8 7 7 7 7 7 6 5 4 2 3 6 6 7 7 7 7 11 11 10 7 5 6 11 10 8 12 15 16 17 17 17 16 17 20 24 26 16 12 12 10 9 7 6 7 7 7 7 6 7 5 6 4 3 1 1 1 1 0 0 1 3 2 2 2 3 4 6 6 7 7 7 6 5 4 6 7 7 8
12 13 11 9 9 9 7 7 7 7 7 7 6 5 4 6 6 0 4 7 7 7 7 6 6 3 14 10 6 4 9 11 13 15 17 17 18 18 18 19 23 26 25 21 11 8 9 9 8 7 7 7 7 6 7 7 6 7 6 4 3 2 3 2 1 2 2 3 2 1 3 3 3 4 5 5 6 6 7 8 8 8 8 6 6
16 15 13 11 10 9 7 6 7 7 7 7 7 5 4 4 6 8 4 5 6 4 6 8 7 7 1 12 13 10 10 12 14 15 16 17 18 18 19 21 23 26 24 12 10 9 7 7 8 7 8 8 7 7 7 6 7 7 6 7 5 3 3 1 2 2 2 2 1 1 1 2 3 3 4 4 5 7 7 8 7 6 6 8 8
17 13 13 15 12 9 8 7 7 8 7 7 6 4 3 3 4 3 6 6 3 1 4 7 9 7 6 2 14 13 12 13 14 15 16 17 18 19 19 15 23 25 16 9 9 9 8 7 7 7 6 6 7 7 6 6 6 6 4 3 3 4 3 1 2 3 4 2 1 1 2 3 3 4 5 4 3 2 6 7 7 9 9 8 9
15 17 23 17 12 12 10 8 7 7 8 7 5 4 4 2 1 2 2 3 4 5 5 4 6 8 4 3 6 15 14 14 15 15 17 17 19 20 20 13 14 10 9 7 8 9 9 8 8 7 7 8 8 8 8 6 7 6 7 6 4 4 3 3 3 3 3 2 1 1 2 3 4 3 3 5 6 7 7 7 7 7 8 9 9
16 13 13 15 14 13 13 11 8 7 7 7 6 4 1 1 2 2 2 2 2 3 3 2 3 6 6 3 4 14 16 16 14 15 15 18 18 21 11 9 10 9 8 6 7 7 7 7 8 8 7 7 7 7 7 8 7 7 5 6 7 5 4 3 3 4 2 2 2 2 3 3 3 4 4 2 3 4 4 5 6 6 6 7 7
14 13 12 13 14 13 14 13 10 8 7 7 6 3 1 1 1 1 2 2 2 3 2 3 4 4 4 2 4 11 16 15 15 15 16 17 20 12 6 7 7 8 8 7 6 7 7 5 6 7 7 8 7 7 7 7 6 6 5 5 5 6 4 5 4 4 4 3 2 2 3 3 3 3 3 3 4 4 4 4 6 6 6 8 8
13 12 12 15 15 14 13 13 12 13 9 7 6 5 1 1 0 0 1 2 2 2 3 4 4 3 4 4 6 3 10 13 14 13 12 14 11 6 7 7 8 9 8 6 7 7 7 6 6 7 7 7 8 7 7 7 7 6 6 5 5 5 6 5 5 4 3 3 3 2 3 3 3 3 3 3 4 5 5 6 6 7 7 7 7
11 18 22 24 17 12 12 12 12 11 9 8 7 6 4 2 1 1 1 1 1 2 2 2 2 3 3 4 4 8 9 5 4 5 4 4 6 7 8 8 8 7 7 7 6 6 7 7 6 6 7 7 7 7 7 7 6 6 6 6 5 3 6 5 5 4 3 3 2 2 3 3 2 2 2 2 4 4 4 5 5 5 7 8 7
13 12 15 23 14 14 12 12 12 11 9 9 8 6 4 2 0 1 1 1 1 1 1 1 2 2 3 3 3 3 6 6 5 5 5 6 7 7 9 8 8 9 8 7 7 7 7 7 7 7 7 6 7 7 7 7 7 6 6 6 6 6 6 5 5 5 4 3 3 2 3 2 1 1 1 2 2 3 4 5 4 5 5 4 7
10 11 13 14 15 14 12 11 10 10 10 9 8 6 4 2 1 1 0 1 0 0 0 1 1 2 2 2 2 5 5 5 5 5 6 6 7 7 7 7 8 8 7 7 7 7 7 8 7 7 7 7 7 7 7 7 7 6 6 6 4 6 5 4 4 4 4 3 4 3 2 1 1 2 3 4 4 4 3 2 3 4 4 4 5
10 11 12 12 14 11 11 11 11 12 11 10 8 6 3 0 1 1 1 1 1 1 0 1 2 2 3 3 1 10 6 5 5 6 6 7 6 6 6 6 6 8 9 8 9 8 7 8 7 7 8 8 8 7 7 7 7 7 7 6 7 6 6 5 4 4 4 4 3 3 1 1 1 1 2 4 3 3 4 4 4 3 4 5 5
11 12 12 12 11 11 11 11 11 10 10 9 8 6 2 2 2 2 1 1 1 1 1 1 0 1 3 7 3 9 6 6 5 6 6 6 6 6 6 6 6 6 6 7 6 8 9 9 8 8 8 8 9 9 10 9 8 7 7 6 7 7 6 5 4 3 3 4 4 2 1 1 1 1 1 1 1 2 3 4 4 4 4 4 5
10 12 11 11 11 11 10 10 10 10 9 11 10 8 1 3 3 2 2 2 2 1 2 2 1 1 2 3 4 6 6 6 6 6 6 7 6 6 6 6 6 7 7 7 6 7 8 8 8 6 5 5 5 5 6 7 8 8 8 7 7 6 6 6 7 6 6 6 4 4 3 1 0 1 1 1 1 3 3 4 4 5 5 5 5
7 9 10 10 10 9 10 9 10 10 11 9 7 5 2 3 3 2 3 2 2 2 2 2 2 2 3 3 4 5 6 6 6 6 6 7 7 6 6 6 6 7 7 6 6 7 7 8 8 8 7 5 5 6 7 6 5 5 7 8 9 8 8 8 8 6 6 6 6 4 3 3 2 1 1 1 1 1 2 3 3 4 4 5 5
9 10 10 10 10 10 10 9 10 9 8 8 8 6 2 3 3 3 3 3 3 3 2 3 3 3 3 3 4 5 5 5 5 6 6 6 7 7 6 6 5 5 6 6 6 7 7 8 8 8 9 8 7 6 6 5 5 5 4 4 5 6 6 5 5 6 6 5 6 5 5 3 2 1 1 0 0 1 1 1 1 1 2 2 3
9 9 10 9 9 10 10 10 9 9 9 8 7 6 2 4 4 3 3 3 3 3 3 4 4 3 3 3 4 5 5 5 5 6 6 6 7 7 7 7 5 6 6 6 5 6 7 7 7 8 8 8 7 7 6 6 5 5 4 4 4 5 5 5 6 6 6 4 5 6 4 4 3 1 1 0 0 1 1 1 1 2 2 2 2
8 9 8 9 9 9 9 9 10 10 8 8 6 1 3 4 3 3 3 3 3 3 4 4 4 4 4 4 4 5 5 5 5 6 6 6 6 6 7 7 6 6 7 6 6 5 6 6 7 7 8 8 8 7 6 6 5 4 4 4 4 5 6 6 5 4 4 4 4 5 5 5 3 3 1 1 1 0 1 1 2 1 1 2 2
9 9 8 8 8 9 9 9 8 9 8 7 4 3 4 3 3 3 3 3 3 3 3 4 4 4 4 4 5 6 6 6 6 6 6 6 6 6 6 7 6 6 6 6 6 6 6 6 6 7 7 7 7 8 7 6 6 5 4 4 6 7 7 6 5 4 5 5 4 4 4 4 4 2 1 1 1 0 0 1 1 1 2 2 1
8 9 8 9 9 9 8 8 9 8 7 6 3 3 3 3 2 2 2 3 3 3 3 4 4 4 5 5 5 5 5 6 6 6 6 6 6 6 6 7 6 6 6 6 6 6 6 5 6 6 7 7 7 7 7 7 6 6 5 5 8 9 8 7 6 6 5 4 5 4 5 4 3 2 1 1 1 0 0 1 1 1 1 2 2
10 10 9 8 8 7 9 9 8 8 8 7 5 3 2 2 2 2 3 3 3 3 4 4 4 5 5 6 6 5 6 6 6 7 6 7 6 7 7 7 7 7 6 6 6 6 6 6 6 6 6 7 7 7 6 6 5 6 7 9 10 8 8 7 5 5 5 4 3 4 5 4 3 2 1 0 0 1 1 1 1 1 1 1 2
Wind_Direction
305 305 305 303 301 302 301 299 295 294 294 293 287 283 279 281 284 278 284 274 258 244 232 223 217 215 211 210 209 202 197 193 186 175 171 176 182 191 193 200 208 211 200 180 179 181 192 202 204 201 184 188 194 193 196 195 194 199 195 199 208 205 212 231 250 271 262 256 275 281 277 274 266 250 273 279 286 282 280 278 280 280 281 279 278
301 300 300 301 302 302 300 300 298 296 295 294 292 288 280 274 275 281 271 269 255 245 233 225 219 213 212 212 211 204 197 181 181 186 192 192 196 201 201 200 207 209 199 175 179 193 193 203 205 195 189 190 190 194 194 193 197 198 201 200 206 208 200 212 244 260 274 237 282 277 277 257 273 250 277 285 283 285 286 285 282 277 277 275 272
301 301 299 300 298 296 296 297 295 294 295 296 294 293 289 280 274 272 273 272 254 240 235 227 217 213 214 214 212 206 198 187 191 191 194 195 197 194 197 200 204 202 199 193 195 194 196 200 205 192 186 189 195 198 192 198 198 201 205 202 208 208 206 208 229 253 267 269 274 281 270 277 272 276 260 269 276 280 285 282 282 282 274 272 274
298 301 301 299 299 298 296 295 295 296 295 294 294 296 294 288 276 269 270 271 267 250 240 231 219 213 215 215 213 208 201 197 198 198 199 197 198 200 200 201 202 202 198 195 196 193 195 199 205 193 186 191 197 198 197 198 199 205 204 206 205 207 209 209 220 243 260 275 262 261 268 278 272 264 269 270 278 283 277 282 276 275 273 270 273
288 288 289 292 295 297 296 298 298 296 295 297 296 295 292 290 284 272 273 270 261 259 249 232 225 216 216 214 210 208 204 202 202 202 202 199 198 202 198 197 198 201 201 196 194 192 191 199 202 193 187 193 199 195 196 199 203 203 208 207 206 208 210 215 228 234 257 265 274 249 257 261 262 261 241 266 278 280 281 275 277 279 278 269 278
285 287 290 292 294 293 292 291 291 293 295 297 295 294 293 289 285 280 269 269 265 252 244 233 225 222 217 215 210 209 206 204 205 204 202 200 201 203 198 195 196 198 201 198 194 192 192 197 198 190 190 194 199 200 197 201 196 197 207 210 210 209 213 223 229 238 249 260 266 275 246 253 260 251 241 266 281 291 291 284 282 281 279 283 281
286 285 288 292 294 295 296 297 297 296 295 293 293 292 289 286 284 281 275 263 266 256 242 235 229 224 222 214 213 209 208 206 207 205 203 199 200 198 196 195 197 199 202 199 194 191 192 193 192 188 193 198 199 196 195 194 195 202 206 208 207 205 216 222 229 239 246 258 260 254 268 263 254 274 274 267 260 272 292 295 289 284 286 295 300
288 287 288 289 289 288 287 287 290 290 291 291 288 284 281 281 276 274 273 267 262 257 248 238 234 224 224 218 215 208 205 205 205 204 202 199 197 199 196 195 196 200 201 200 194 190 189 192 193 192 195 199 200 198 186 194 192 201 205 201 200 205 214 222 230 241 247 248 251 264 257 263 255 268 271 271 284 280 271 291 293 294 292 288 277
288 285 286 285 283 283 282 282 281 282 284 286 286 282 279 276 275 266 264 263 263 261 256 245 238 229 223 218 212 205 207 206 203 201 200 200 197 197 198 196 192 197 198 195 188 188 189 194 194 194 197 201 203 198 194 190 184 197 201 192 197 203 213 221 231 239 241 244 253 256 260 260 257 270 281 286 289 292 295 286 278 279 294 295 291
291 290 288 288 289 287 286 285 284 285 286 288 287 283 280 278 275 270 259 256 261 259 257 248 239 234 228 219 211 206 208 207 204 205 202 194 193 194 195 197 196 197 197 195 189 186 191 190 195 198 200 204 206 207 203 201 197 193 189 186 196 201 213 224 231 231 235 239 247 250 256 255 256 260 285 279 285 292 287 290 293 301 299 292 287
295 295 293 293 291 287 284 284 288 291 292 290 288 284 277 277 281 276 260 252 253 255 249 247 239 232 225 218 210 209 206 204 210 215 213 206 191 191 184 185 194 196 198 194 188 181 182 190 189 199 201 206 210 213 212 211 212 209 204 200 198 200 213 223 229 232 229 242 246 254 256 265 267 274 279 294 284 286 292 292 288 293 293 301 302
292 292 291 291 291 291 292 295 294 292 291 288 285 281 284 281 279 275 273 256 255 247 243 243 241 231 224 217 213 209 207 206 214 217 215 211 199 187 188 182 190 195 195 195 197 189 171 169 183 191 197 201 204 214 217 218 219 220 222 224 224 221 221 217 224 218 219 233 249 248 254 258 277 280 288 290 288 276 270 277 281 280 276 282 283
297 296 294 292 291 291 290 289 288 286 282 283 284 280 275 283 281 273 265 260 253 245 244 241 239 230 222 216 214 208 206 208 214 217 217 215 206 186 192 177 186 185 192 197 196 193 176 168 167 190 201 208 210 204 209 221 224 226 228 232 237 241 246 242 235 237 227 244 251 268 268 291 290 285 277 278 280 279 276 269 271 269 275 282 285
303 300 299 297 297 296 293 292 289 288 288 287 285 285 285 277 274 264 258 259 248 250 248 242 241 230 221 218 213 206 204 204 211 216 218 217 214 197 182 191 194 194 197 196 198 193 165 164 176 187 181 202 202 194 194 207 214 235 247 260 281 284 269 266 273 278 282 279 277 275 276 265 276 281 279 274 273 269 277 282 292 295 292 286 294
303 302 301 301 300 299 296 292 291 291 291 290 289 289 286 282 280 271 257 254 254 250 248 247 240 232 223 214 210 206 202 204 211 214 216 217 217 216 169 187 186 192 194 194 198 192 170 170 170 168 168 192 196 188 188 194 199 209 219 229 234 240 251 268 275 279 275 268 261 261 268 261 262 269 272 270 264 267 291 300 300 292 292 289 282
301 299 302 303 299 299 300 297 296 297 293 292 291 291 290 288 288 275 251 249 249 251 253 246 246 234 221 211 210 210 206 209 209 211 214 216 217 217 172 180 188 186 190 189 192 193 179 166 162 168 171 189 199 200 192 179 182 192 203 219 231 241 246 240 240 243 241 237 237 241 249 261 274 288 299 298 304 308 303 297 290 287 288 286 280
300 297 299 298 297 296 293 293 297 297 296 296 294 293 290 289 285 273 253 240 244 240 247 241 240 237 218 208 206 209 204 210 209 210 212 214 215 211 168 170 183 188 184 188 191 187 183 185 177 180 186 189 197 202 205 187 184 190 202 210 217 225 244 249 259 265 272 287 308 326 337 337 327 318 313 307 302 301 300 291 275 282 282 283 285
298 294 294 299 298 294 292 296 297 295 296 294 293 291 288 287 287 276 260 254 243 241 240 237 226 218 213 206 202 203 206 207 210 208 209 212 212 208 175 156 166 177 181 183 186 190 195 192 184 183 187 193 195 202 205 200 186 193 192 207 215 227 241 229 257 316 345 346 334 335 328 321 322 323 318 310 305 299 276 269 284 323 276 270 283
299 294 293 296 297 292 290 290 288 288 291 290 290 293 292 290 287 280 261 250 247 246 230 227 218 206 210 206 207 207 202 205 208 209 211 211 213 200 185 146 162 178 174 175 173 182 189 199 195 185 189 193 196 202 205 203 178 181 186 197 215 227 233 182 195 299 348 353 338 346 323 327 334 324 306 306 304 305 306 295 302 278 266 271 274
301 289 288 296 295 291 284 281 281 283 286 286 287 288 290 293 288 279 270 252 247 230 228 222 213 208 201 197 201 204 198 196 204 210 211 214 215 199 172 164 159 166 162 159 157 173 177 183 198 196 196 195 199 203 206 208 179 173 165 185 197 235 173 105 122 120 66 301 284 292 284 288 300 297 290 295 296 285 278 264 259 250 261 266 267
304 296 302 301 297 293 287 277 277 278 277 279 285 288 287 291 292 290 283 268 246 233 225 221 208 206 191 193 195 198 196 193 201 209 211 217 216 209 159 172 163 162 159 160 166 166 171 183 184 195 195 196 199 204 205 209 181 159 175 183 204 139 110 91 65 67 169 230 281 295 292 297 284 277 283 290 285 276 270 269 258 255 259 262 269
311 312 306 301 297 292 288 282 274 279 284 287 293 293 289 286 287 286 271 266 264 252 232 215 207 199 188 191 193 198 195 197 188 207 213 218 219 210 168 169 155 159 157 160 164 162 169 175 174 195 194 194 201 200 196 184 177 116 155 188 153 114 104 114 137 130 97 338 332 314 309 308 304 316 307 294 289 281 276 269 263 262 254 258 259
305 305 303 300 297 293 288 285 286 289 290 294 295 295 294 293 289 285 284 279 264 260 226 206 198 192 185 192 193 197 190 196 196 193 211 218 217 216 180 161 165 163 160 164 168 167 164 167 177 193 196 194 193 189 173 176 131 134 169 130 109 106 111 111 121 68 19 336 317 307 310 309 318 316 306 299 287 278 277 268 267 262 260 258 255
299 299 298 295 293 285 281 282 287 286 286 291 294 290 288 286 285 282 276 266 269 256 233 197 181 177 177 176 192 196 192 178 206 200 204 216 218 216 195 169 172 159 165 165 163 159 154 165 177 190 195 193 181 172 173 131 133 144 120 109 96 90 84 91 68 87 251 306 322 318 313 309 312 307 304 298 295 290 281 274 268 262 258 258 257
300 299 296 294 291 285 279 281 282 283 282 279 285 288 286 288 291 291 277 273 250 241 250 194 195 199 184 185 174 192 184 182 180 211 203 207 218 212 209 179 177 162 164 160 154 160 168 170 175 180 184 178 167 154 138 137 130 111 106 95 88 82 96 109 116 147 22 344 304 294 295 308 301 289 292 294 293 291 284 281 273 269 263 265 268
300 297 295 289 279 276 281 284 282 277 282 275 255 260 273 287 297 303 301 283 269 256 239 200 200 193 196 191 193 190 180 171 180 195 213 202 211 211 211 198 181 169 165 159 163 164 166 162 167 169 159 130 102 90 94 115 116 107 97 91 92 107 121 124 175 126 14 299 310 308 307 314 310 299 294 301 307 299 305 302 308 301 297 299 294
306 299 293 291 286 282 280 282 282 283 279 282 281 281 282 284 289 293 283 275 261 241 217 199 197 200 195 191 178 173 175 175 172 177 184 193 174 196 206 217 184 171 163 154 159 154 156 158 132 116 112 120 116 110 98 89 75 64 62 83 104 115 144 189 185 154 161 286 308 303 302 298 299 318 331 331 311 301 309 312 312 312 317 313 307
316 303 295 292 286 283 281 279 281 284 285 285 290 293 293 284 282 284 291 283 277 255 223 203 200 198 205 179 165 152 142 165 183 180 188 179 176 167 160 157 180 148 138 143 137 138 127 115 108 86 86 71 71 59 61 72 89 100 94 94 103 173 172 122 105 93 145 213 257 289 328 337 334 329 328 321 305 311 324 329 332 324 324 321 325
318 308 300 293 286 285 281 281 285 290 293 288 279 277 290 305 301 286 261 229 230 253 235 224 207 201 188 173 164 163 120 190 206 192 178 181 173 166 158 162 119 134 141 129 107 95 102 107 112 111 105 110 98 100 102 101 83 95 108 87 78 73 72 70 77 41 290 349 17 5 337 329 323 329 324 318 325 335 330 332 338 331 319 317 310
317 311 305 298 295 295 294 294 295 292 292 291 296 286 240 247 283 283 289 297 270 247 230 216 204 176 182 188 179 166 187 207 194 189 188 186 184 177 168 150 147 141 139 135 132 125 130 132 136 134 134 130 131 139 145 139 136 124 130 132 119 111 87 85 86 215 286 58 38 5 333 335 343 341 333 323 317 336 345 357 334 334 330 332 323
312 306 311 307 305 301 298 294 294 299 294 296 295 296 310 231 239 308 319 320 317 308 273 251 237 206 182 187 200 205 199 185 182 190 186 187 186 183 172 159 152 150 143 133 129 137 139 136 142 141 145 139 145 155 157 153 153 142 138 127 186 150 112 104 181 213 81 51 38 4 335 357 349 328 329 327 330 333 340 344 337 337 341 330 325
314 314 309 307 305 300 293 291 301 303 300 298 296 310 328 327 323 91 358 344 331 328 339 352 358 273 206 191 167 192 203 193 187 188 187 185 185 181 173 163 161 152 147 140 130 143 145 144 148 152 149 148 156 154 160 160 156 152 152 147 162 183 133 140 160 127 88 70 29 346 0 6 335 321 315 321 330 339 348 353 1 351 341 330 321
318 318 323 322 311 300 294 309 313 307 309 306 306 323 333 331 325 321 334 336 328 355 39 33 17 13 345 201 184 181 182 186 187 189 186 184 182 179 171 166 163 150 145 138 138 138 146 148 148 153 158 160 158 161 168 162 156 158 166 161 167 178 175 203 101 113 94 117 93 340 17 358 338 326 319 331 351 359 356 358 349 341 334 335 334
329 327 330 328 319 311 317 317 314 314 310 304 304 316 319 312 301 287 310 324 357 97 62 38 21 12 6 310 195 186 182 180 184 185 184 181 181 176 170 169 161 152 145 138 142 146 147 148 149 154 154 142 148 150 152 158 154 152 155 156 147 137 164 186 97 88 70 47 48 7 19 7 356 344 336 341 336 347 8 3 353 354 356 350 335
333 327 331 335 331 326 319 313 317 313 309 304 306 318 313 323 241 298 287 316 321 327 317 352 357 352 337 341 213 181 178 180 182 181 182 180 177 173 166 163 159 145 138 142 147 148 151 155 155 155 154 154 164 161 160 156 152 152 154 151 145 140 143 130 119 98 86 82 56 43 36 27 359 342 339 352 0 18 10 1 358 349 345 343 339
333 325 325 332 333 325 316 311 311 309 306 302 304 297 295 301 305 295 319 304 325 303 312 341 333 310 320 273 278 181 173 179 175 177 179 177 176 175 163 159 151 145 138 137 137 146 146 151 145 151 149 145 149 155 157 155 159 157 158 153 150 152 152 137 126 109 104 91 77 50 53 33 9 346 330 335 17 17 1 359 349 338 343 339 334
329 325 328 331 328 321 312 308 308 313 308 302 303 295 153 190 188 339 267 339 288 305 327 330 341 345 8 21 313 181 170 172 172 172 177 176 177 174 139 153 136 136 136 135 132 131 135 139 141 141 149 150 155 151 148 146 146 145 155 141 142 134 144 144 129 123 118 99 85 65 69 46 10 346 345 355 359 3 4 360 359 351 357 341 340
324 324 325 325 323 319 318 317 315 316 314 313 310 311 329 171 83 164 326 281 313 349 353 343 354 354 0 334 317 174 165 167 164 167 174 176 172 134 133 108 128 137 138 135 147 144 137 134 140 147 147 147 145 148 142 140 146 148 143 143 139 153 138 113 103 107 115 108 91 66 71 46 25 355 347 6 16 6 2 2 2 357 351 352 360
321 321 322 324 323 320 315 315 312 314 314 317 315 320 324 331 57 49 302 307 349 337 351 336 322 352 346 331 332 151 149 136 131 138 148 123 116 119 105 118 116 120 124 133 131 130 132 140 137 132 141 145 146 147 144 142 142 145 145 142 143 127 109 116 119 122 111 119 106 93 81 71 24 354 344 357 10 10 2 0 2 8 359 353 347
321 319 320 324 323 321 320 315 310 309 314 317 317 320 319 302 19 272 244 342 340 328 305 323 324 341 338 348 356 105 123 127 126 118 102 112 117 122 127 126 131 136 139 141 142 139 136 135 142 143 144 144 145 142 137 136 143 147 149 143 144 142 147 143 144 139 142 153 122 111 86 71 37 348 350 336 9 10 8 6 356 353 346 340 332
310 312 316 320 318 316 313 309 308 309 311 310 311 315 308 313 93 118 124 331 108 269 309 317 330 313 322 337 45 127 113 126 120 112 110 110 117 122 127 132 133 134 135 140 141 141 138 140 142 143 142 144 142 138 135 133 137 144 145 139 131 132 134 136 136 139 151 140 133 116 112 94 59 61 40 356 5 20 342 355 354 356 348 339 339
310 313 315 314 314 311 308 308 306 305 301 302 308 317 338 37 120 142 185 188 216 159 34 46 339 295 320 10 13 142 108 99 100 110 108 115 120 122 127 128 136 142 147 148 148 144 141 141 143 147 150 149 144 139 135 139 149 148 146 147 147 141 141 155 160 161 157 151 146 148 174 192 124 63 42 52 14 351 4 4 3 357 360 359 352
306 313 309 304 306 305 303 300 299 297 298 304 310 318 352 121 127 166 169 176 160 151 114 131 343 346 11 13 36 127 105 107 105 111 112 114 111 115 116 118 119 121 124 129 133 139 142 144 148 155 160 161 160 160 160 159 156 149 149 150 151 153 152 154 157 167 163 145 146 137 95 48 66 100 70 51 359 19 8 356 1 13 13 4 3
305 308 304 303 299 296 293 290 294 292 293 294 296 294 299 121 135 164 173 165 155 137 142 144 129 68 35 7 55 104 109 109 110 115 117 117 115 114 113 115 115 115 116 117 122 127 135 138 139 135 124 126 129 129 134 145 151 153 152 150 149 154 158 164 173 177 176 162 159 152 160 164 131 64 67 47 42 37 13 7 11 10 13 10 3
293 305 308 305 298 295 295 291 287 288 290 291 297 294 140 135 151 171 170 160 138 136 135 111 97 80 84 63 87 111 113 115 118 121 126 127 120 114 112 113 118 120 121 121 128 132 134 136 137 137 135 127 129 135 135 143 151 155 158 154 154 164 178 185 188 178 165 159 156 154 162 150 146 145 79 60 42 50 37 18 1 4 13 18 21
312 309 304 302 302 299 297 291 290 282 285 296 299 301 144 145 140 164 162 154 145 137 114 114 101 91 93 97 97 107 102 106 114 116 113 110 114 112 105 105 82 102 114 125 131 134 136 138 140 142 141 142 140 132 134 138 141 147 154 161 159 165 166 157 141 147 166 162 155 156 151 142 153 145 132 90 323 69 41 357 354 23 13 358 6
307 303 302 295 295 294 294 292 294 298 302 298 290 286 139 134 149 157 146 137 130 134 131 125 118 111 108 105 107 112 109 106 111 117 113 112 111 114 113 111 97 101 109 113 115 119 124 128 132 137 137 136 132 133 136 136 133 138 143 141 131 130 141 148 160 165 169 170 149 140 151 145 148 127 122 91 59 5 9 348 354 350 340 355 360
304 299 292 295 292 290 293 296 295 296 292 297 296 321 122 121 135 141 127 125 129 136 131 124 119 116 114 103 101 107 102 85 90 100 104 103 105 107 112 112 100 111 115 111 111 113 118 122 127 128 133 136 138 138 137 136 137 139 139 141 140 144 144 144 142 142 140 139 143 137 139 134 134 133 128 127 119 37 33 344 335 318 336 339 346
308 306 295 302 303 307 301 297 302 307 298 292 305 98 112 119 130 138 131 125 133 136 134 121 113 113 107 99 99 106 102 86 88 94 89 92 98 109 107 106 102 108 113 113 113 112 114 117 124 131 134 136 137 139 142 145 148 149 149 148 148 143 128 123 131 133 132 125 114 110 105 114 132 135 124 132 150 188 265 299 296 303 324 322 338
306 305 307 307 306 298 300 318 309 289 306 335 17 80 86 106 102 113 105 111 115 109 106 108 111 110 108 105 99 91 97 100 99 92 100 107 110 112 108 112 105 105 109 111 109 110 111 116 123 128 132 135 138 140 145 148 153 153 151 150 150 144 131 113 102 117 124 125 129 129 124 113 110 90 80 115 152 147 237 270 284 303 311 325 332
316 317 308 306 298 307 329 325 317 328 348 358 6 33 52 86 100 95 102 102 94 79 85 86 100 102 97 103 107 92 94 87 95 109 112 117 118 117 116 114 113 111 107 108 110 110 117 124 130 132 135 136 138 141 143 146 149 147 146 143 140 135 135 131 121 118 124 131 130 131 121 130 124 126 122 168 158 203 243 250 270 275 304 313 315